[[{"header":{"parameterUnit":"m.s-1","parameterCategory":1,"la1":30.2991,"la2":30.254,"lo1":-89.0895,"lo2":-89.0444,"dy":0.0017,"dx":0.0017,"nx":28,"ny":28,"refTime":"2025-07-17T03:00:00:Z","depth":0,"parameterNumber":2,"parameterNumberName":"U-component_of_WINDS"},"data":[0,0,0,0,0,0,0,0,0,0,0,0,0,0,0,0,0,0,0,0,0,0,0,0,0,0,0,0,0,0,0,0,0,0,0,0,0,0,0,0,0,0,0,0,0,0,0,0,0,0,0,0,0,0,0,0,0,0,2.6738,2.674,0,2.6909,2.6911,2.6913,2.6918,2.6916,2.6914,2.6912,2.7084,2.709,2.7097,0,0,0,0,0,0,0,0,0,0,0,0,0,2.641,2.6416,2.6738,2.674,2.6743,2.6909,2.6911,2.6914,2.6919,2.6916,2.6913,2.6911,2.7082,2.7089,2.7097,0,0,0,0,0,0,0,0,0,0,0,0,0,2.6564,2.6418,2.6738,2.6765,2.6769,2.6909,2.6912,2.6914,2.6919,2.6916,2.6913,2.691,2.7079,2.7089,2.7098,2.7221,0,0,2.7128,2.7132,0,0,0,0,0,0,0,0,2.6555,2.6576,2.6759,2.6763,2.6768,2.6889,2.6859,2.7017,2.692,2.6862,2.6912,2.6908,2.7021,2.7036,2.7075,2.7229,2.7236,2.7129,2.7135,2.7139,2.7142,0,0,0,0,0,0,0,2.6545,2.6569,2.6806,2.6761,2.6767,2.6767,2.6785,2.6889,2.6957,2.6867,2.6868,2.6888,2.7023,2.7065,2.7079,2.7239,2.7129,2.7137,2.7143,2.7147,2.7499,2.7502,0,0,0,0,0,0,2.6529,2.656,2.68,2.6811,2.6652,2.6775,2.6796,2.6854,2.6956,2.6969,2.689,2.6888,2.705,2.7067,2.7085,2.7232,2.7139,2.7148,2.7154,2.7495,2.7499,2.7503,0,0,0,0,0,0,2.6522,2.6551,2.6794,2.6686,2.6717,2.6784,2.6849,2.6859,2.69,2.6974,2.6986,2.6921,2.7048,2.7071,2.7186,2.7239,2.7153,2.7161,2.7491,2.7496,2.7501,2.7531,0,0,0,0,0,0,2.6513,2.6548,2.6597,2.6687,2.6722,2.6894,2.6852,2.6864,2.6918,2.6916,2.7006,2.7017,2.7047,2.7172,2.7196,2.725,2.7169,2.7487,2.7493,2.75,2.7525,2.7536,2.7546,0,0,0,0,0,2.6501,2.6599,2.6599,2.6628,2.6785,2.6897,2.6917,2.6951,2.6922,2.697,2.7017,2.7015,2.7229,2.7184,2.7211,2.7269,2.7483,2.7491,2.7499,2.7521,2.7534,2.7545,0,0,0,0,0,0,2.6513,2.6611,2.6613,2.6743,2.6812,2.6898,2.696,2.6965,2.7042,2.7037,2.7074,2.7094,2.7208,2.7251,2.7198,2.7391,2.7353,2.7366,2.736,2.7373,2.7383,2.7369,2.7177,0,0,0,0,0,2.653,2.6615,2.6696,2.6802,2.6837,2.6892,2.6943,2.6962,2.7035,2.7064,2.7119,2.7188,2.727,2.7324,2.7405,2.7532,2.7549,2.7585,2.7595,2.7603,2.7613,2.768,2.7696,2.7529,2.7529,2.7529,0,0,2.6568,2.6632,2.6683,2.6806,2.6862,2.6946,2.6917,2.7008,2.7071,2.7077,2.7189,2.7232,2.7311,2.7432,2.7488,2.747,2.7663,2.7613,2.7618,2.7625,2.769,2.7705,2.7719,2.7534,2.7533,2.7532,0,0,2.6678,2.6737,2.683,2.6886,2.6971,2.7007,2.7029,2.7115,2.7144,2.7257,2.7263,2.7336,2.7479,2.7534,2.7581,2.7709,2.7709,2.7734,2.7787,2.7851,2.7864,2.7876,2.7919,2.7934,2.7745,2.7745,2.7745,0,2.6714,2.6843,2.6878,2.6969,2.7021,2.7031,2.7125,2.7177,2.7283,2.7318,2.7298,2.7475,2.7529,2.7661,2.7692,2.7731,2.7755,2.7724,2.786,2.7872,2.7883,2.7925,2.7941,2.7748,2.7747,2.7747,2.7747,0,2.688,2.6969,2.7035,2.7137,2.7197,2.7289,2.7335,2.7392,2.7405,2.7443,2.7556,2.7621,2.7713,2.7746,2.7761,2.788,2.7866,2.7852,2.7814,2.7901,2.794,2.7957,2.7751,2.775,2.775,2.7749,0,0,2.7004,2.7123,2.7146,2.7191,2.7284,2.7352,2.7443,2.7534,2.758,2.7652,2.7727,2.7846,2.7833,2.7886,2.7907,2.7964,2.8057,2.7943,2.7945,2.7959,2.8188,2.8196,2.8214,2.8058,2.8061,2.8064,2.818,0,2.7122,2.7285,2.7318,2.7458,2.7539,2.7549,2.7627,2.7691,2.7728,2.7801,2.7841,2.7923,2.7902,2.7933,2.799,2.8034,2.8103,2.8026,2.8125,2.8129,2.8103,2.8235,2.8245,2.8352,2.8196,2.8199,2.8201,0,2.7283,2.7359,2.7507,2.7587,2.7622,2.7692,2.7776,2.7846,2.7918,2.794,2.7998,2.8012,2.8104,2.8062,2.8187,2.8133,2.8176,2.8203,2.8208,2.8217,2.8169,2.8245,2.8387,2.8402,2.8226,2.8224,2.8222,0,2.7354,2.7494,2.76,2.7638,2.7735,2.7783,2.7825,2.7894,2.7945,2.8018,2.8051,2.8134,2.8179,2.8241,2.8275,2.8242,2.8397,2.8358,2.8415,2.8414,2.8446,2.8443,2.8595,2.8477,2.8477,2.8477,2.8476,0,2.7482,2.7572,2.7633,2.7698,2.7797,2.7833,2.793,2.7971,2.8032,2.8103,2.8117,2.8183,2.8225,2.8297,2.8324,2.8421,2.8442,2.8461,2.8466,2.8459,2.8456,2.8485,2.8478,2.8481,2.848,2.8479,2.8479,0,2.7578,2.7623,2.7739,2.782,2.7842,2.7912,2.798,2.8042,2.8078,2.8168,2.8191,2.8248,2.8332,2.8373,2.8478,2.8496,2.8605,2.8607,2.8581,2.8583,2.8636,2.863,2.881,2.8834,2.8703,2.8704,2.8705,0,2.7656,2.7725,2.7813,2.7862,2.7906,2.7985,2.8037,2.8074,2.8127,2.8213,2.8264,2.8349,2.8419,2.8553,2.8602,2.8681,2.8683,2.8741,2.8695,2.8684,2.8681,2.8675,2.8681,2.8749,2.875,2.8751,2.8752,0,2.7788,2.7806,2.7882,2.7965,2.8027,2.8093,2.8159,2.8198,2.8245,2.8304,2.839,2.8445,2.8551,2.8634,2.8716,2.8757,2.8761,2.8766,2.8783,2.8774,2.8755,2.8763,2.8601,2.8761,2.876,2.876,2.8759,2.8759,2.7876,2.7936,2.8007,2.809,2.8143,2.8203,2.8265,2.8308,2.8382,2.8472,2.8489,2.858,2.8647,2.8758,2.8801,2.8871,2.8858,2.8883,2.8889,2.8894,2.8895,2.8746,2.8886,2.8886,2.8886,2.8886,2.8886,0,2.8006,2.8052,2.8128,2.8219,2.8283,2.8283,2.8354,2.8407,2.8488,2.855,2.8619,2.8716,2.8796,2.8851,2.8932,2.8977,2.898,2.8996,2.8992,2.9001,2.8904,2.888,2.8992,2.8992,2.8992,2.8992,2.8992,2.8992,2.8081,2.8183,2.8209,2.8336,2.838,2.847,2.8511,2.8565,2.8615,2.8724,2.8791,2.8826,2.8885,2.8969,2.9041,2.9055,2.9083,2.9099,2.9111,2.902,2.9008,2.8997,2.8975,2.9105,2.9105,2.9202,2.9203,2.9204]},{"header":{"parameterUnit":"m.s-1","parameterCategory":1,"la1":30.2991,"la2":30.254,"lo1":-89.0895,"lo2":-89.0444,"dy":0.0017,"dx":0.0017,"nx":28,"ny":28,"refTime":"2025-07-17T03:00:00:Z","depth":0,"parameterNumber":3,"parameterNumberName":"V-component_of_WINDS"},"data":[0,0,0,0,0,0,0,0,0,0,0,0,0,0,0,0,0,0,0,0,0,0,0,0,0,0,0,0,0,0,0,0,0,0,0,0,0,0,0,0,0,0,0,0,0,0,0,0,0,0,0,0,0,0,0,0,0,0,4.0396,4.0398,0,4.0583,4.0585,4.0587,4.0614,4.0612,4.061,4.0608,4.0799,4.0806,4.0812,0,0,0,0,0,0,0,0,0,0,0,0,0,4.0058,4.0064,4.0395,4.0398,4.04,4.0582,4.0585,4.0588,4.0614,4.0612,4.061,4.0608,4.0797,4.0805,4.0813,0,0,0,0,0,0,0,0,0,0,0,0,0,4.0221,4.0066,4.0395,4.0435,4.0441,4.0582,4.0585,4.0588,4.0614,4.0612,4.0609,4.0607,4.0794,4.0804,4.0814,4.0928,0,0,4.0844,4.0849,0,0,0,0,0,0,0,0,4.0212,4.0233,4.0427,4.0433,4.0439,4.0572,4.0536,4.0702,4.0615,4.0548,4.0608,4.0605,4.0726,4.0741,4.0782,4.0936,4.0945,4.0845,4.0851,4.0856,4.0859,0,0,0,0,0,0,0,4.02,4.0225,4.0469,4.043,4.0437,4.0443,4.0463,4.0568,4.0649,4.0554,4.0556,4.0578,4.0728,4.0772,4.0787,4.0947,4.0845,4.0854,4.086,4.0864,4.1203,4.1206,0,0,0,0,0,0,4.0182,4.0216,4.0464,4.0475,4.0317,4.0451,4.0474,4.0532,4.0648,4.0663,4.058,4.0579,4.0756,4.0775,4.0793,4.0933,4.0856,4.0865,4.0871,4.12,4.1204,4.1207,0,0,0,0,0,0,4.0175,4.0204,4.0456,4.0346,4.0379,4.046,4.0525,4.0537,4.0581,4.0668,4.0682,4.061,4.0755,4.0779,4.0894,4.094,4.087,4.0879,4.1196,4.1201,4.1205,4.1214,0,0,0,0,0,0,4.0165,4.0201,4.0246,4.0347,4.0384,4.0554,4.0528,4.0543,4.0598,4.0598,4.07,4.0714,4.0755,4.0879,4.0904,4.0953,4.0887,4.1193,4.1198,4.1204,4.121,4.1218,4.1225,0,0,0,0,0,4.0153,4.0241,4.0248,4.0278,4.0442,4.0557,4.0578,4.0623,4.0602,4.0647,4.0703,4.0711,4.0931,4.089,4.0919,4.0971,4.119,4.1197,4.1203,4.1206,4.1216,4.1225,0,0,0,0,0,0,4.0143,4.0255,4.0264,4.0388,4.0462,4.0561,4.0619,4.0633,4.0715,4.0711,4.0763,4.0786,4.0898,4.0946,4.0899,4.1086,4.1058,4.1071,4.1051,4.1061,4.1069,4.1055,4.0895,0,0,0,0,0,4.0155,4.024,4.0333,4.0433,4.047,4.0538,4.0589,4.0618,4.0697,4.0729,4.0793,4.0869,4.0955,4.1011,4.1095,4.1217,4.1239,4.1267,4.1274,4.128,4.1291,4.1357,4.137,4.1229,4.1229,4.1229,0,0,4.0182,4.0253,4.0303,4.0432,4.0494,4.0579,4.0564,4.0655,4.0719,4.0743,4.0854,4.0904,4.0992,4.111,4.1166,4.1154,4.1334,4.1289,4.1293,4.13,4.1365,4.1379,4.139,4.1233,4.1233,4.1232,0,0,4.0273,4.0336,4.0426,4.0487,4.058,4.0624,4.0645,4.0742,4.0776,4.0889,4.0908,4.0983,4.1131,4.1193,4.1244,4.1356,4.1367,4.1382,4.1422,4.1486,4.1498,4.1508,4.1547,4.156,4.1392,4.1392,4.1392,0,4.0294,4.0423,4.047,4.056,4.0615,4.0641,4.0731,4.0788,4.0904,4.0941,4.0926,4.1111,4.1173,4.1305,4.1332,4.1373,4.1398,4.1371,4.1492,4.1503,4.1513,4.1551,4.1566,4.1393,4.1393,4.1393,4.1393,0,4.0443,4.0533,4.0594,4.0704,4.0767,4.0857,4.0916,4.0973,4.0996,4.1041,4.1155,4.123,4.1329,4.1362,4.1385,4.1497,4.1487,4.1482,4.1455,4.1527,4.1563,4.1578,4.1395,4.1395,4.1394,4.1394,0,0,4.0535,4.0669,4.069,4.074,4.0844,4.0913,4.1003,4.11,4.1148,4.1226,4.1302,4.1426,4.1421,4.1479,4.1509,4.1565,4.1648,4.1553,4.1556,4.1567,4.1775,4.1778,4.1794,4.1655,4.1658,4.1661,4.1767,0,4.0637,4.0799,4.0843,4.098,4.1062,4.1086,4.1165,4.1236,4.1281,4.1356,4.1406,4.1492,4.148,4.1514,4.1571,4.1626,4.169,4.1619,4.1726,4.1729,4.1702,4.1813,4.1817,4.1914,4.1782,4.1784,4.1786,0,4.0779,4.086,4.1005,4.1096,4.1132,4.1202,4.1293,4.1366,4.1446,4.1475,4.1538,4.1562,4.1656,4.1624,4.1753,4.1703,4.175,4.1783,4.1788,4.1799,4.1762,4.1827,4.1946,4.196,4.1809,4.1807,4.1805,0,4.083,4.0975,4.108,4.1122,4.1231,4.1279,4.1327,4.1405,4.146,4.154,4.1576,4.1665,4.1714,4.1782,4.183,4.1802,4.1954,4.1926,4.198,4.1979,4.2011,4.2008,4.2138,4.2041,4.2041,4.2041,4.2041,0,4.0939,4.1027,4.1104,4.1168,4.1267,4.1315,4.1411,4.1459,4.1528,4.1602,4.1629,4.1697,4.1756,4.1832,4.187,4.197,4.1992,4.2017,4.2026,4.2015,4.2011,4.2045,4.204,4.2045,4.2044,4.2043,4.2043,0,4.1013,4.1068,4.1184,4.1277,4.1303,4.1371,4.1451,4.1514,4.1559,4.1652,4.1676,4.1747,4.1838,4.1892,4.2007,4.2032,4.2143,4.2149,4.2116,4.212,4.217,4.2164,4.2326,4.235,4.2237,4.2238,4.2239,0,4.1079,4.1147,4.1247,4.1298,4.1347,4.1429,4.1485,4.1535,4.1592,4.1688,4.1739,4.1832,4.1908,4.2052,4.2113,4.2201,4.2209,4.226,4.2223,4.2208,4.2209,4.2204,4.2211,4.2266,4.2267,4.2268,4.2269,0,4.119,4.1214,4.1293,4.1382,4.1448,4.1521,4.1593,4.1633,4.1695,4.1757,4.1851,4.191,4.2027,4.2118,4.221,4.2259,4.2274,4.228,4.2297,4.2286,4.2263,4.2275,4.2132,4.2276,4.2275,4.2275,4.2274,4.2274,4.1262,4.1322,4.1402,4.1489,4.1549,4.1615,4.1678,4.1731,4.181,4.1909,4.1933,4.2031,4.2108,4.2234,4.2285,4.2361,4.2353,4.2377,4.2384,4.2389,4.239,4.2251,4.2378,4.2378,4.2378,4.2378,4.2378,0,4.1373,4.1425,4.1505,4.1605,4.1673,4.1681,4.1761,4.1818,4.1903,4.1974,4.2049,4.2155,4.2243,4.2311,4.2401,4.2449,4.2458,4.2471,4.2468,4.2478,4.2392,4.2368,4.2462,4.2462,4.2462,4.2462,4.2462,4.2462,4.1439,4.1542,4.1575,4.1706,4.1758,4.1854,4.1898,4.1959,4.2016,4.2133,4.2207,4.225,4.232,4.2415,4.2496,4.2513,4.2545,4.2557,4.2575,4.2494,4.2484,4.2476,4.2453,4.2563,4.2563,4.2655,4.2655,4.2656]}]]